ES2ADF-5 Weather Reports


time (UTC)temp
C
wind
direction
speed
KPH
gust
KPH
rain 1hr
cm
rain 24hr
cm
rain mn
cm
humidity
%
barometer
mb
20260506122702 12 0 0.0 0.0 0.00 0.00 0.00 36 1013.1
20260506122202 12 0 0.0 0.0 0.00 0.00 0.00 34 1013.2
20260506121702 12 0 0.0 0.0 0.00 0.00 0.00 34 1013.1
20260506121202 12 0 0.0 0.0 0.00 0.00 0.00 34 1012.9
20260506120701 12 0 0.0 0.0 0.00 0.00 0.00 34 1012.9
20260506120201 12 0 0.0 0.0 0.00 0.00 0.00 33 1012.9
20260506115701 12 0 0.0 0.0 0.00 0.00 0.00 33 1012.8
20260506115200 12 0 0.0 0.0 0.00 0.00 0.00 33 1012.8
20260506114700 12 0 0.0 0.0 0.00 0.00 0.00 33 1012.9
20260506114200 12 0 0.0 0.0 0.00 0.00 0.00 34 1013.1
20260506113700 12 0 0.0 0.0 0.00 0.00 0.00 33 1013.1
20260506113159 12 0 0.0 0.0 0.00 0.00 0.00 33 1012.8
20260506112659 12 0 0.0 0.0 0.00 0.00 0.00 33 1012.9
20260506112159 12 0 0.0 0.0 0.00 0.00 0.00 34 1013.0
20260506111658 12 0 0.0 0.0 0.00 0.00 0.00 34 1013.0
20260506111158 12 0 0.0 0.0 0.00 0.00 0.00 34 1012.9
20260506110658 12 0 0.0 0.0 0.00 0.00 0.00 36 1012.8
20260506110157 12 0 0.0 0.0 0.00 0.00 0.00 36 1013.0
20260506105657 12 0 0.0 0.0 0.00 0.00 0.00 34 1012.9
20260506105157 12 0 0.0 0.0 0.00 0.00 0.00 36 1013.0
20260506104657 12 0 0.0 0.0 0.00 0.00 0.00 34 1012.9
20260506104156 12 0 0.0 0.0 0.00 0.00 0.00 34 1013.2
20260506103656 12 0 0.0 0.0 0.00 0.00 0.00 36 1013.2
20260506103156 12 0 0.0 0.0 0.00 0.00 0.00 36 1013.2
20260506102655 11 0 0.0 0.0 0.00 0.00 0.00 34 1013.2
20260506102155 12 0 0.0 0.0 0.00 0.00 0.00 34 1013.1
20260506101655 12 0 0.0 0.0 0.00 0.00 0.00 36 1013.2
20260506101155 12 0 0.0 0.0 0.00 0.00 0.00 37 1013.2
20260506100654 12 0 0.0 0.0 0.00 0.00 0.00 38 1013.3
20260506100154 12 0 0.0 0.0 0.00 0.00 0.00 38 1013.2
20260506095654 12 0 0.0 0.0 0.00 0.00 0.00 38 1013.3
20260506095153 12 0 0.0 0.0 0.00 0.00 0.00 38 1013.2
20260506094653 12 0 0.0 0.0 0.00 0.00 0.00 39 1013.0
20260506094153 12 0 0.0 0.0 0.00 0.00 0.00 39 1013.1
20260506093653 12 0 0.0 0.0 0.00 0.00 0.00 40 1013.1
20260506093152 12 0 0.0 0.0 0.00 0.00 0.00 39 1013.0
20260506092652 12 0 0.0 0.0 0.00 0.00 0.00 39 1013.1
20260506092152 12 0 0.0 0.0 0.00 0.00 0.00 39 1012.9
20260506091651 12 0 0.0 0.0 0.00 0.00 0.00 40 1013.0
20260506091151 12 0 0.0 0.0 0.00 0.00 0.00 39 1013.2
20260506090651 12 0 0.0 0.0 0.00 0.00 0.00 39 1013.1
20260506090151 12 0 0.0 0.0 0.00 0.00 0.00 38 1013.1
20260506085650 12 0 0.0 0.0 0.00 0.00 0.00 40 1013.0
20260506085150 12 0 0.0 0.0 0.00 0.00 0.00 40 1013.1
20260506084650 12 0 0.0 0.0 0.00 0.00 0.00 40 1013.0
20260506084149 12 0 0.0 0.0 0.00 0.00 0.00 40 1012.9
20260506083649 12 0 0.0 0.0 0.00 0.00 0.00 41 1012.9
20260506083149 12 0 0.0 0.0 0.00 0.00 0.00 42 1012.8
20260506082649 12 0 0.0 0.0 0.00 0.00 0.00 41 1012.7
20260506082148 12 0 0.0 0.0 0.00 0.00 0.00 41 1012.8
20260506081648 12 0 0.0 0.0 0.00 0.00 0.00 41 1012.9
20260506081148 12 0 0.0 0.0 0.00 0.00 0.00 42 1012.8
20260506080647 12 0 0.0 0.0 0.00 0.00 0.00 42 1012.6
20260506080147 12 0 0.0 0.0 0.00 0.00 0.00 43 1012.5
20260506073145 12 0 0.0 0.0 0.00 0.00 0.00 41 1012.4
20260506072645 12 0 0.0 0.0 0.00 0.00 0.00 40 1012.4
20260506072145 13 0 0.0 0.0 0.00 0.00 0.00 39 1012.3
20260506071644 13 0 0.0 0.0 0.00 0.00 0.00 38 1012.3
20260506071144 15 0 0.0 0.0 0.00 0.00 0.00 37 1011.9
20260506070644 16 0 0.0 0.0 0.00 0.00 0.00 35 1011.9
20260506070144 20 0 0.0 0.0 0.00 0.00 0.00 34 1011.8
20260506062141 20 0 0.0 0.0 0.00 0.00 0.00 36 1011.9
20260506061641 21 0 0.0 0.0 0.00 0.00 0.00 37 1011.9
20260506061141 21 0 0.0 0.0 0.00 0.00 0.00 39 1012.0
20260506060640 20 0 0.0 0.0 0.00 0.00 0.00 39 1011.8
20260506060140 20 0 0.0 0.0 0.00 0.00 0.00 40 1011.7
20260506051137 17 0 0.0 0.0 0.00 0.00 0.00 52 1011.4
20260506050637 16 0 0.0 0.0 0.00 0.00 0.00 53 1011.4
20260506050137 15 0 0.0 0.0 0.00 0.00 0.00 55 1011.5
20260506045136 14 0 0.0 0.0 0.00 0.00 0.00 58 1011.6
20260506044636 13 0 0.0 0.0 0.00 0.00 0.00 61 1011.5
20260506044135 11 0 0.0 0.0 0.00 0.00 0.00 65 1011.4
20260506043635 10 0 0.0 0.0 0.00 0.00 0.00 70 1011.5
20260506043135 7 0 0.0 0.0 0.00 0.00 0.00 78 1011.5
20260506042635 5 0 0.0 0.0 0.00 0.00 0.00 81 1011.5
20260506042134 4 0 0.0 0.0 0.00 0.00 0.00 81 1011.4
20260506041634 2 0 0.0 0.0 0.00 0.00 0.00 82 1011.3
20260506041134 2 0 0.0 0.0 0.00 0.00 0.00 81 1011.4
20260506040633 2 0 0.0 0.0 0.00 0.00 0.00 81 1011.4
20260506040133 2 0 0.0 0.0 0.00 0.00 0.00 82 1011.2
20260506035633 1 0 0.0 0.0 0.00 0.00 0.00 82 1011.3
20260506035133 1 0 0.0 0.0 0.00 0.00 0.00 82 1011.0
20260506034632 1 0 0.0 0.0 0.00 0.00 0.00 83 1011.0
20260506034132 0 0 0.0 0.0 0.00 0.00 0.00 82 1011.0
20260506033632 0 0 0.0 0.0 0.00 0.00 0.00 82 1010.9
20260506033131 0 0 0.0 0.0 0.00 0.00 0.00 82 1011.0
20260506032631 0 0 0.0 0.0 0.00 0.00 0.00 82 1010.8
20260506032131 0 0 0.0 0.0 0.00 0.00 0.00 82 1010.6
20260506031631 0 0 0.0 0.0 0.00 0.00 0.00 81 1010.6
20260506031130 0 0 0.0 0.0 0.00 0.00 0.00 81 1010.5
20260506030630 0 0 0.0 0.0 0.00 0.00 0.00 81 1010.6
20260506030130 0 0 0.0 0.0 0.00 0.00 0.00 82 1010.5
20260506025629 0 0 0.0 0.0 0.00 0.00 0.00 82 1010.4
20260506025129 0 0 0.0 0.0 0.00 0.00 0.00 82 1010.2
20260506024629 0 0 0.0 0.0 0.00 0.00 0.00 82 1010.2
20260506024128 0 0 0.0 0.0 0.00 0.00 0.00 81 1010.1
20260506023628 0 0 0.0 0.0 0.00 0.00 0.00 81 1010.2
20260506023128 0 0 0.0 0.0 0.00 0.00 0.00 81 1010.1
20260506022628 0 0 0.0 0.0 0.00 0.00 0.00 81 1010.2
20260506022127 0 0 0.0 0.0 0.00 0.00 0.00 82 1010.2
20260506021627 0 0 0.0 0.0 0.00 0.00 0.00 82 1010.2
20260506021127 0 0 0.0 0.0 0.00 0.00 0.00 82 1010.1
20260506020626 0 0 0.0 0.0 0.00 0.00 0.00 82 1010.0
20260506020126 0 0 0.0 0.0 0.00 0.00 0.00 81 1010.0
20260506015626 0 0 0.0 0.0 0.00 0.00 0.00 81 1009.9
20260506015126 0 0 0.0 0.0 0.00 0.00 0.00 81 1010.0
20260506014625 0 0 0.0 0.0 0.00 0.00 0.00 81 1009.9
20260506014125 0 0 0.0 0.0 0.00 0.00 0.00 80 1010.0
20260506013625 0 0 0.0 0.0 0.00 0.00 0.00 80 1009.9
20260506013124 0 0 0.0 0.0 0.00 0.00 0.00 80 1009.9
20260506012624 0 0 0.0 0.0 0.00 0.00 0.00 80 1009.8
20260506012124 0 0 0.0 0.0 0.00 0.00 0.00 80 1009.7
20260506011624 0 0 0.0 0.0 0.00 0.00 0.00 81 1009.7
20260506011123 0 0 0.0 0.0 0.00 0.00 0.00 81 1009.7
20260506010623 0 0 0.0 0.0 0.00 0.00 0.00 81 1009.6
20260506010123 0 0 0.0 0.0 0.00 0.00 0.00 80 1009.5
20260506005622 0 0 0.0 0.0 0.00 0.00 0.00 80 1009.4
20260506005122 0 0 0.0 0.0 0.00 0.00 0.00 80 1009.5
20260506004622 0 0 0.0 0.0 0.00 0.00 0.00 80 1009.3
20260506004122 0 0 0.0 0.0 0.00 0.00 0.00 79 1009.3
20260506003621 0 0 0.0 0.0 0.00 0.00 0.00 79 1009.2
20260506003121 0 0 0.0 0.0 0.00 0.00 0.00 79 1009.3
20260506002621 0 0 0.0 0.0 0.00 0.00 0.00 79 1009.2
20260506002120 0 0 0.0 0.0 0.00 0.00 0.00 79 1009.2
20260506001620 0 0 0.0 0.0 0.00 0.00 0.00 79 1009.1
20260506001120 1 0 0.0 0.0 0.00 0.00 0.00 79 1009.1
20260506000619 1 0 0.0 0.0 0.00 0.00 0.00 79 1009.0
20260506000119 1 0 0.0 0.0 0.00 0.00 0.00 79 1009.0
20260505235619 1 0 0.0 0.0 0.00 0.00 0.00 79 1009.0
20260505235119 1 0 0.0 0.0 0.00 0.00 0.00 79 1008.9
20260505234618 1 0 0.0 0.0 0.00 0.00 0.00 78 1008.9
20260505234118 1 0 0.0 0.0 0.00 0.00 0.00 78 1008.9
20260505233618 1 0 0.0 0.0 0.00 0.00 0.00 79 1008.8
20260505233117 1 0 0.0 0.0 0.00 0.00 0.00 78 1008.8
20260505232617 1 0 0.0 0.0 0.00 0.00 0.00 77 1008.8
20260505232117 1 0 0.0 0.0 0.00 0.00 0.00 78 1008.7
20260505231617 1 0 0.0 0.0 0.00 0.00 0.00 78 1008.8
20260505231116 1 0 0.0 0.0 0.00 0.00 0.00 78 1008.8
20260505230616 1 0 0.0 0.0 0.00 0.00 0.00 78 1008.8
20260505230116 1 0 0.0 0.0 0.00 0.00 0.00 78 1008.8
20260505225615 1 0 0.0 0.0 0.00 0.00 0.00 77 1008.7
20260505225115 1 0 0.0 0.0 0.00 0.00 0.00 77 1008.7
20260505224615 1 0 0.0 0.0 0.00 0.00 0.00 76 1008.9
20260505224115 1 0 0.0 0.0 0.00 0.00 0.00 76 1008.7
20260505223614 1 0 0.0 0.0 0.00 0.00 0.00 76 1008.7
20260505223114 2 0 0.0 0.0 0.00 0.00 0.00 75 1008.8
20260505222614 2 0 0.0 0.0 0.00 0.00 0.00 75 1008.9
20260505222113 2 0 0.0 0.0 0.00 0.00 0.00 75 1008.8
20260505221613 2 0 0.0 0.0 0.00 0.00 0.00 76 1008.9
20260505221113 2 0 0.0 0.0 0.00 0.00 0.00 75 1008.8
20260505220612 2 0 0.0 0.0 0.00 0.00 0.00 75 1008.9
20260505220112 2 0 0.0 0.0 0.00 0.00 0.00 75 1008.9
20260505215612 2 0 0.0 0.0 0.00 0.00 0.00 75 1008.7
20260505215112 2 0 0.0 0.0 0.00 0.00 0.00 75 1008.7
20260505214611 2 0 0.0 0.0 0.00 0.00 0.00 75 1008.7
20260505214112 2 0 0.0 0.0 0.00 0.00 0.00 75 1008.7
20260505213611 2 0 0.0 0.0 0.00 0.00 0.00 74 1008.6
20260505213110 2 0 0.0 0.0 0.00 0.00 0.00 74 1008.5
20260505212610 3 0 0.0 0.0 0.00 0.00 0.00 73 1008.5
20260505212110 3 0 0.0 0.0 0.00 0.00 0.00 73 1008.5
20260505211610 3 0 0.0 0.0 0.00 0.00 0.00 73 1008.4
20260505211109 3 0 0.0 0.0 0.00 0.00 0.00 73 1008.4
20260505210609 3 0 0.0 0.0 0.00 0.00 0.00 72 1008.4
20260505210109 3 0 0.0 0.0 0.00 0.00 0.00 72 1008.2
20260505205608 3 0 0.0 0.0 0.00 0.00 0.00 72 1008.2
20260505205108 4 0 0.0 0.0 0.00 0.00 0.00 72 1008.1
20260505204608 4 0 0.0 0.0 0.00 0.00 0.00 72 1008.2
20260505204108 4 0 0.0 0.0 0.00 0.00 0.00 71 1008.1
20260505203607 4 0 0.0 0.0 0.00 0.00 0.00 71 1008.0
20260505203107 4 0 0.0 0.0 0.00 0.00 0.00 71 1008.0
20260505202607 5 0 0.0 0.0 0.00 0.00 0.00 71 1008.0
20260505202106 5 0 0.0 0.0 0.00 0.00 0.00 71 1008.1
20260505201606 5 0 0.0 0.0 0.00 0.00 0.00 70 1008.1
20260505201106 5 0 0.0 0.0 0.00 0.00 0.00 70 1008.1
20260505200606 5 0 0.0 0.0 0.00 0.00 0.00 70 1008.1
20260505200105 5 0 0.0 0.0 0.00 0.00 0.00 69 1008.0
20260505195605 5 0 0.0 0.0 0.00 0.00 0.00 69 1007.9
20260505195105 5 0 0.0 0.0 0.00 0.00 0.00 69 1007.9
20260505194604 5 0 0.0 0.0 0.00 0.00 0.00 68 1007.8
20260505194104 5 0 0.0 0.0 0.00 0.00 0.00 68 1007.8
20260505193604 5 0 0.0 0.0 0.00 0.00 0.00 67 1007.7
20260505193103 5 0 0.0 0.0 0.00 0.00 0.00 67 1007.7
20260505192603 5 0 0.0 0.0 0.00 0.00 0.00 66 1007.8
20260505192103 5 0 0.0 0.0 0.00 0.00 0.00 65 1007.8
20260505191603 5 0 0.0 0.0 0.00 0.00 0.00 65 1007.8
20260505191102 5 0 0.0 0.0 0.00 0.00 0.00 64 1007.7
20260505190602 6 0 0.0 0.0 0.00 0.00 0.00 63 1007.6
20260505185601 6 0 0.0 0.0 0.00 0.00 0.00 63 1007.5
20260505185101 6 0 0.0 0.0 0.00 0.00 0.00 62 1007.5
20260505184601 6 0 0.0 0.0 0.00 0.00 0.00 62 1007.4
20260505184101 6 0 0.0 0.0 0.00 0.00 0.00 62 1007.7
20260505183600 6 0 0.0 0.0 0.00 0.00 0.00 61 1007.6
20260505183100 6 0 0.0 0.0 0.00 0.00 0.00 61 1007.3
20260505182600 6 0 0.0 0.0 0.00 0.00 0.00 60 1007.3
20260505182059 6 0 0.0 0.0 0.00 0.00 0.00 60 1007.3
20260505181559 6 0 0.0 0.0 0.00 0.00 0.00 60 1007.4
20260505181059 6 0 0.0 0.0 0.00 0.00 0.00 60 1007.3
20260505180559 7 0 0.0 0.0 0.00 0.00 0.00 60 1007.3
20260505180058 7 0 0.0 0.0 0.00 0.00 0.00 59 1007.2
20260505175558 7 0 0.0 0.0 0.00 0.00 0.00 59 1007.3
20260505175058 7 0 0.0 0.0 0.00 0.00 0.00 58 1007.2
20260505174557 7 0 0.0 0.0 0.00 0.00 0.00 58 1007.1
20260505174057 7 0 0.0 0.0 0.00 0.00 0.00 58 1007.2
20260505173557 7 0 0.0 0.0 0.00 0.00 0.00 57 1007.3
20260505173056 7 0 0.0 0.0 0.00 0.00 0.00 57 1007.1
20260505172556 7 0 0.0 0.0 0.00 0.00 0.00 57 1006.9
20260505172056 7 0 0.0 0.0 0.00 0.00 0.00 57 1007.1
20260505171556 7 0 0.0 0.0 0.00 0.00 0.00 57 1006.9
20260505171055 8 0 0.0 0.0 0.00 0.00 0.00 57 1006.9
20260505170555 8 0 0.0 0.0 0.00 0.00 0.00 56 1006.9
20260505170055 8 0 0.0 0.0 0.00 0.00 0.00 56 1007.0
20260505165554 8 0 0.0 0.0 0.00 0.00 0.00 57 1006.8
20260505165054 8 0 0.0 0.0 0.00 0.00 0.00 57 1006.8
20260505164554 8 0 0.0 0.0 0.00 0.00 0.00 57 1006.7
20260505164054 8 0 0.0 0.0 0.00 0.00 0.00 56 1007.0
20260505163553 8 0 0.0 0.0 0.00 0.00 0.00 56 1006.9
20260505163053 8 0 0.0 0.0 0.00 0.00 0.00 56 1006.8
20260505162553 8 0 0.0 0.0 0.00 0.00 0.00 57 1006.8
20260505162052 8 0 0.0 0.0 0.00 0.00 0.00 57 1006.8
20260505161552 8 0 0.0 0.0 0.00 0.00 0.00 57 1006.8
20260505161052 8 0 0.0 0.0 0.00 0.00 0.00 57 1006.7
20260505160552 8 0 0.0 0.0 0.00 0.00 0.00 57 1006.8
20260505153050 9 0 0.0 0.0 0.00 0.00 0.00 58 1006.8
20260505152549 9 0 0.0 0.0 0.00 0.00 0.00 58 1006.7
20260505152049 9 0 0.0 0.0 0.00 0.00 0.00 58 1006.7
20260505151549 10 0 0.0 0.0 0.00 0.00 0.00 58 1006.7
20260505151048 10 0 0.0 0.0 0.00 0.00 0.00 58 1006.6
20260505150548 10 0 0.0 0.0 0.00 0.00 0.00 58 1006.6
20260505140545 10 0 0.0 0.0 0.00 0.00 0.00 59 1006.3
20260505125040 11 0 0.0 0.0 0.00 0.00 0.00 58 1005.8
20260505124540 11 0 0.0 0.0 0.00 0.00 0.00 58 1005.7
20260505124040 11 0 0.0 0.0 0.00 0.00 0.00 58 1005.7
20260505123539 11 0 0.0 0.0 0.00 0.00 0.00 58 1005.7